Showing default

GAOFEN 8, 40701

Orbit data source: Space-Track

GAOFEN 8, 40701 is a payload satellite owned by PLA GAD (CN) in SSO that was launched on Fri, 26 Jun 2015 UTC via a CHANG ZHENG 4B launch vehicle from the Taiyaun Space Center, China (TSC). Payloads include a variety of satellites, spacecraft, and rockets equipped with specific instruments for various scientific and technological missions. These include communications satellites like Starlink; space stations such as the ISS; scientific satellites like the Hubble; Earth observation satellites from companies like Planet Labs, Umbra, and HawkEye 360; GPS; miniature CubeSats for education and research; and military/defense satellites.

Loading next visibility...
GAOFEN 8 details
Identifier
40701, 2015-030A
Orbit
SSO
Last TLE update8 hours ago
Origin
Flag of CNPLA GAD (CN / PRC)
ManufacturerCAST
MissionOperational Defense Imaging
Bus & MotorYW-5?, Unknown motor
Mass~2,400 kg wet, ~2,400 kg dry
Launch date (UTC)
2015-06-26 (10 years ago)
Launch vehicle
CHANG ZHENG 4B
Launch site
Taiyaun Space Center, China (TSC)
Object type
Payload
Rocket body
Debris
Shape & HBRBox + 2 Pan, 8 m
Radar Cross Section9.231 m², Large (>1 m²)

Expand to show TLE details & history

TLE from 8 hours ago
0 GAOFEN 8
1 40701U 15030A   24361.23174323  .00022762  00000-0  92255-3 0  9997
2 40701  97.6709 160.1757 0013316 299.6936  60.2975 15.24578353528891
Epoch: 2024-12-26T05:33Z
Definitive object data (Epoch: 2024-12-26T05:33:42.615Z)
Latitude0.00002°
Longitude-18.46597°
Altitude490.616 km
Speed7.622 km/s
True Right ascension10h 40m 42s
True Declination0° 00' 00"
Sunlit
Object was in full shadow at TLE epoch
Visualization TLE readout
Latitude51.0563°
Longitude171.43436°
Altitude509.271 km
Speed7.609 km/s
Apparent Right ascension00h 24m 48s
Apparent Declination8° 03' 43"
Sunlit
Object is in daylight
Visualization observer readout
Local Sidereal Time13:21:45
Azimuth18.604° NNE
Elevation-40.248°
Doppler factor1
Orbital elements
Apogee altitude498.167 km
Perigee altitude479.879 km
Semi-major axis6,867.16 km
Eccentricity0.0013316
Inclination97.6709°
RAAN160.1757°
Arg. of periapsis299.6936°
True anomaly60.43015°
Mean anomaly60.2975°
Eccentric anomaly60.36381°
Mean motion3.81397 °/min
BSTAR0.00092255
Orbital period94.39 mins
Loading maneuver chart data...
Loading historical data...
Loading historical data...
Loading historical data...
Loading historical data...
Loading historical data...
Loading historical data...
Loading historical data...

GAOFEN 8 Visibility forecast

Observer location: undefined°, undefined

Span
Click to sort rows by Start time (UTC) header in descending order
Start Az.
Max El. time (UTC)
Max El. Az.
Max El.
End time (UTC)
End Az.
6 mins2024-12-26 23:26:59.449Z23.563° NE2024-12-26 23:29:59.449Z86.868° E38.447°2024-12-26 23:32:59.449Z175.088° S
4 mins2024-12-27 11:37:59.449Z227.996° WSW2024-12-27 11:39:59.449Z274.108° WNW20.418°2024-12-27 11:41:59.449Z311.76° NW
|